Location: Burgerwiesen
(48.6500°N, 15.6167°E)
Time: 07:23:27
(UTC+00:00)

Daily predictions for brighter satellites

Satellite Brightness Start Highest point End
(mag) Time Altitude Azimuth Time Altitude Azimuth Time Altitude Azimuth
IRS-1A Rocket 4.4 18:05:55 10° SSE 18:11:40 77° ENE 18:17:32 10° NNW
STARLINK-1200 4.2 18:08:09 10° WNW 18:12:12 51° NNE 18:16:16 10° E
SJ-11-01 4.4 18:09:45 10° SSE 18:14:28 85° WSW 18:19:16 10° NNW
ATLAS 2AS CENTAUR R/B 3.0 18:09:10 10° NW 18:16:52 85° SW 18:23:53 10° SE
STARLINK-1192 4.2 18:13:08 10° WNW 18:17:12 53° NNE 18:21:16 10° E
SeaSat 1 2.5 18:13:40 10° NNE 18:18:38 89° ESE 18:23:34 10° SSW
STARLINK-1234 2.9 18:17:26 10° WNW 18:20:34 88° SW 18:23:38 10° ESE
STARLINK-1209 2.9 18:17:54 10° WNW 18:21:02 84° SSW 18:24:05 10° ESE
STARLINK-1233 2.9 18:18:17 10° WNW 18:21:27 76° NNE 18:24:29 11° ESE
ATLAS 5 CENTAUR R/B 1.9 18:17:58 10° SSW 18:21:53 42° ESE 18:26:15 10° NE
STARLINK-1212 2.9 18:18:46 10° WNW 18:21:55 76° NNE 18:24:55 11° ESE
STARLINK-1244 4.1 18:18:12 10° WNW 18:22:17 55° NNE 18:26:22 10° E
STARLINK-1105 2.9 18:19:12 10° WNW 18:22:21 77° NNE 18:25:21 11° ESE
STARLINK-1206 2.9 18:19:40 10° WNW 18:22:48 77° NNE 18:25:45 11° ESE
STARLINK-1247 2.9 18:20:08 10° WNW 18:23:16 78° NNE 18:26:12 11° ESE
STARLINK-1227 2.9 18:20:32 10° WNW 18:23:41 78° NNE 18:26:38 11° ESE
H-2A R/B 2.0 18:18:57 10° SSE 18:24:08 87° ENE 18:29:13 10° NNW
STARLINK-1218 2.9 18:21:02 10° WNW 18:24:10 79° NNE 18:27:04 12° ESE
Cosmos 1603 4.4 18:18:55 10° SW 18:24:27 60° WNW 18:30:02 10° NNE
COSMOS 2455 3.0 18:18:33 10° NNW 18:24:33 61° NE 18:30:30 10° SE
STARLINK-1226 2.9 18:21:28 10° WNW 18:24:37 79° NNE 18:27:30 12° ESE
STARLINK-1254 2.9 18:21:53 10° WNW 18:25:03 80° NNE 18:27:57 12° ESE
STARLINK-1215 2.9 18:22:23 10° WNW 18:25:31 80° NNE 18:28:22 12° ESE
STARLINK-1231 2.9 18:22:50 10° WNW 18:25:58 81° NNE 18:28:48 12° ESE
STARLINK-1232 2.9 18:23:45 10° WNW 18:26:53 82° NNE 18:29:41 12° ESE
STARLINK-1138 4.0 18:23:06 10° WNW 18:27:12 56° NNE 18:31:13 10° E
STARLINK-1217 2.9 18:24:12 10° WNW 18:27:19 82° NNE 18:30:07 12° ESE
STARLINK-1208 2.9 18:24:37 10° WNW 18:27:46 83° NNE 18:30:33 13° ESE
Abrixas rocket 2.1 18:25:04 10° W 18:28:00 60° SSW 18:30:32 13° ESE
STARLINK-1229 2.8 18:25:05 10° WNW 18:28:13 83° NNE 18:30:58 13° ESE
STARLINK-1271 2.8 18:25:33 10° WNW 18:28:40 84° NNE 18:31:25 13° ESE
STARLINK-1270 2.8 18:26:00 10° WNW 18:29:08 84° NNE 18:31:51 13° ESE
STARLINK-1154 2.8 18:26:27 10° WNW 18:29:35 85° NNE 18:32:17 13° ESE
STARLINK-1197 2.8 18:27:21 10° WNW 18:30:29 86° NNE 18:33:09 13° ESE
STARLINK-1189 2.8 18:27:47 10° WNW 18:30:55 86° NNE 18:33:34 14° ESE
STARLINK-1198 2.8 18:28:16 10° WNW 18:31:24 87° NNE 18:34:01 14° ESE
Cosmos 1140 Rocket 3.7 18:26:35 10° S 18:31:31 46° ESE 18:36:28 10° NNE
STARLINK-1188 2.8 18:28:41 10° WNW 18:31:49 87° NNE 18:34:26 14° ESE
STARLINK-1143 4.0 18:28:05 10° WNW 18:32:11 58° NNE 18:36:00 12° E
STARLINK-1235 2.9 18:29:21 10° WNW 18:32:30 77° SSW 18:35:09 14° ESE
STARLINK-1187 2.9 18:29:45 10° WNW 18:32:55 84° SSW 18:35:33 14° ESE
Ariane Rocket 3.4 18:28:22 10° S 18:33:25 69° WSW 18:38:30 10° NNW
STARLINK-1199 2.8 18:30:38 10° WNW 18:33:47 90° N 18:36:21 15° ESE
STARLINK-1191 2.8 18:31:05 10° WNW 18:34:14 90° SSW 18:36:47 15° ESE
STARLINK-1210 2.8 18:31:32 10° WNW 18:34:41 89° SW 18:37:13 15° ESE
STARLINK-1221 2.8 18:31:59 10° WNW 18:35:09 89° SSW 18:37:40 15° ESE
STARLINK-1219 2.8 18:32:27 10° WNW 18:35:37 88° S 18:38:06 15° ESE
STARLINK-1222 2.8 18:32:53 10° WNW 18:36:02 88° SSW 18:38:31 15° ESE
STARLINK-1211 2.8 18:33:21 10° WNW 18:36:30 87° SSW 18:38:58 15° ESE
STARLINK-1214 2.8 18:33:48 10° WNW 18:36:57 86° SSW 18:39:24 16° ESE
STARLINK-1241 3.9 18:33:06 10° WNW 18:37:13 60° NNE 18:40:49 13° E
STARLINK-1245 2.8 18:34:16 10° WNW 18:37:24 86° SSW 18:39:48 16° ESE
STARLINK-1238 2.9 18:34:41 10° WNW 18:37:50 85° SSW 18:40:15 16° ESE
ERBS 3.2 18:35:34 10° NW 18:38:46 39° NNE 18:41:22 14° E
STARLINK-1205 2.8 18:35:37 10° WNW 18:38:46 84° SSW 18:41:06 16° ESE
Meteor 1-16 Rocket 4.4 18:33:28 10° SSW 18:38:54 77° WNW 18:44:34 10° N
CZ-2C R/B 3.0 18:34:11 10° S 18:39:01 77° WSW 18:43:47 10° NNW
STARLINK-1204 2.8 18:36:05 10° WNW 18:39:13 84° SSW 18:41:33 16° ESE
Cosmos 614 Rocket 4.0 18:34:09 10° SSW 18:39:23 85° ESE 18:44:37 10° NNE
STARLINK-1239 3.9 18:38:04 10° WNW 18:42:12 63° NNE 18:45:35 15° E
MONITOR-E 4.4 18:39:51 10° S 18:42:26 57° WSW 18:45:03 10° NNW
ATLAS CENTAUR R/B 3.5 18:40:48 10° N 18:42:55 14° NNE 18:45:00 10° ENE
STARLINK-29 3.1 18:41:00 10° SW 18:44:07 53° SSE 18:47:14 10° ENE
Cosmos 1190 Rocket 4.0 18:40:09 10° SSW 18:45:25 70° ESE 18:50:41 10° NNE
SJ-6B 3.0 18:41:24 10° SSE 18:45:32 82° WSW 18:49:41 10° NNW
Resurs 1-3 3.8 18:41:40 10° SSE 18:45:56 53° ENE 18:50:14 10° N
Aureole 1 Rocket 4.0 18:39:17 10° SSW 18:46:37 84° ESE 18:52:16 10° NNE
STARLINK-1240 3.8 18:43:03 10° WNW 18:47:11 66° NNE 18:50:22 16° E
Cosmos 1300 3.4 18:44:00 10° SSE 18:47:28 34° E 18:50:57 10° NNE
BREEZE-M DEB (TANK) 3.8 18:42:24 10° WNW 18:48:46 59° SSW 18:50:46 18° SE
SL-24 R/B 3.8 18:47:32 10° NNE 18:51:31 57° E 18:55:09 10° S
STARLINK-60 3.1 18:48:26 10° WSW 18:51:43 77° NNW 18:55:01 10° ENE
STARLINK-1216 3.8 18:48:01 10° WNW 18:52:10 68° NNE 18:55:08 18° E
Terra 4.1 18:52:45 10° NE 18:53:01 10° NE 18:53:17 10° NE
CZ-2C R/B 3.7 18:49:40 10° NNE 18:54:21 63° ESE 18:58:55 10° S
STARLINK-1237 3.7 18:52:59 10° WNW 18:57:08 72° NNE 18:59:54 20° ESE
Cosmos 2058 Rocket 3.1 18:55:22 10° S 18:59:53 86° E 19:04:25 10° N
STARLINK-1202 3.7 18:57:59 10° WNW 19:02:09 75° NNE 19:04:42 22° ESE
SL-08 RB Rocket 4.1 18:58:01 10° S 19:02:34 68° WSW 19:07:12 10° NNW
Cosmos 1726 Rocket 4.2 18:58:14 10° SSW 19:02:36 59° WNW 19:07:01 10° N
Cosmos 1461 4.0 18:59:24 10° NW 19:03:44 45° WSW 19:08:01 11° SSE
STARLINK-1228 3.8 19:01:27 10° WNW 19:04:12 35° SW 19:05:31 22° SSE
DMSP B5D2-2 4.1 19:00:19 10° NNE 19:05:30 61° ESE 19:10:41 10° S
Cosmos 921 Rocket 3.2 19:01:39 10° NNW 19:05:50 69° WSW 19:09:43 12° S
Cosmos 2341 Rocket 4.0 19:00:19 10° N 19:06:44 76° E 19:13:08 10° SSE
SL-4 R/B 2.0 19:04:55 10° W 19:08:17 60° NNW 19:10:57 16° ENE
ERS-1 Rocket 4.4 19:07:02 17° E 19:09:04 22° ENE 19:12:51 10° N
CZ-4C R/B 3.9 19:04:37 10° NW 19:10:38 34° NNE 19:16:38 13° E
Cosmos 407 Rocket 3.9 19:05:58 10° SSW 19:11:04 64° WNW 19:16:12 10° NNE
Cosmos 1340 Rocket 3.2 19:07:28 10° SSW 19:11:30 67° WNW 19:15:31 10° N
STARLINK-1246 3.6 19:07:56 10° WNW 19:12:06 83° NNE 19:14:15 27° ESE
Cosmos 1408 4.3 19:09:47 10° NNE 19:12:22 18° ENE 19:12:35 18° ENE
RESURS DK-1 3.7 19:09:13 10° N 19:12:45 26° NE 19:14:21 20° E
STARLINK-1201 3.5 19:10:09 10° WNW 19:13:20 50° SSW 19:14:33 31° SSE
Cosmos 676 Rocket 3.9 19:09:22 10° SSW 19:14:37 75° ESE 19:19:53 10° NNE
COSMOS 2406 4.1 19:13:01 22° SE 19:14:51 26° ESE 19:19:30 10° NE
STARLINK-1224 3.6 19:12:57 10° WNW 19:17:06 87° NNE 19:19:04 30° ESE
Cosmos 2218 Rocket 4.1 19:11:47 10° N 19:17:55 58° ENE 19:22:17 20° SSE
STARLINK-1203 3.6 19:15:05 10° WNW 19:19:18 87° SSW 19:21:13 32° ESE
MetOp-A 4.4 19:14:08 10° S 19:19:28 69° WSW 19:24:50 10° NNW
Cosmos 2058 3.2 19:15:39 10° N 19:19:39 46° ENE 19:21:10 31° SE
Cosmos 220 Rocket 4.0 19:15:38 10° NNW 19:19:58 71° ENE 19:22:11 28° SE
Resurs 01 Rocket 1.5 19:17:44 19° SSE 19:20:49 84° ENE 19:25:16 10° NNW
STARLINK-1225 3.5 19:17:56 10° WNW 19:22:06 89° S 19:23:51 34° ESE
MOS 1 Rocket 3.6 19:16:40 10° NNE 19:22:07 79° ESE 19:27:33 10° S
CZ-2C R/B 2.5 19:18:13 10° NNE 19:23:25 74° ESE 19:28:37 10° S
STARLINK-52 2.8 19:21:16 10° WSW 19:24:29 88° NNW 19:25:57 30° ENE
BREEZE M DEB (TANK) 3.3 19:23:39 10° SW 19:26:57 48° SE 19:36:11 10° ENE
STARLINK-1230 3.5 19:22:54 10° WNW 19:27:04 84° SSW 19:28:37 37° ESE
Cosmos 1812 Rocket 3.7 19:25:20 27° SSE 19:27:21 50° E 19:31:34 10° NNE
SPOT 3 Rocket 4.2 19:23:31 10° S 19:28:36 54° W 19:33:43 10° NNW
SL-8 Rocket 4.0 19:23:53 10° N 19:30:15 83° E 19:35:13 18° SSE
Cosmos 1697 Rocket 3.6 19:25:06 10° NNW 19:30:18 35° NE 19:32:44 25° E
Cosmos 2151 4.0 19:26:55 10° NNE 19:30:33 27° ENE 19:30:59 27° E
Cosmos 864 Rocket 4.5 19:25:39 10° N 19:31:51 67° ENE 19:35:37 24° SSE
STARLINK-1243 3.5 19:27:52 10° WNW 19:32:01 80° SSW 19:33:24 41° SE
FALCON 9 DEB 3.2 19:29:20 10° WSW 19:32:50 80° NNW 19:34:33 28° ENE
Iridium 2 3.5 19:33:27 32° S 19:35:06 74° E 19:38:57 10° N
Cosmos 2181 Rocket 3.9 19:29:47 10° S 19:36:01 78° E 19:42:12 10° NNE
Cosmos 1954 Rocket 4.1 19:31:01 10° SSW 19:36:15 78° WNW 19:41:30 10° NNE
STARLINK-1236 3.6 19:32:51 10° WNW 19:37:00 75° SSW 19:38:11 45° SE
Cosmos 1741 Rocket 4.1 19:41:05 23° S 19:44:13 52° ESE 19:49:23 10° NNE
Cosmos 2366 rocket 3.9 19:38:12 10° N 19:44:24 84° E 19:48:11 25° SSE
Cosmos 1076 Rocket 3.4 19:40:28 10° N 19:44:46 87° E 19:46:20 39° S
Meteor 2-1 Rocket 4.3 19:41:06 20° S 19:45:10 63° E 19:51:03 10° NNE
STARLINK-1269 3.7 19:42:49 10° WNW 19:46:56 66° SSW 19:47:44 52° SSE
Landsat 7 3.9 19:46:17 41° SE 19:47:41 59° ENE 19:52:23 10° N
Cosmos 1959 Rocket 4.5 19:42:16 10° N 19:48:38 89° W 19:52:35 24° S
Cosmos 1656 3.7 19:43:33 10° NNW 19:49:15 72° ENE 19:51:23 39° SE
Cosmos 1763 Rocket 3.4 19:44:28 10° NNW 19:49:42 78° ENE 19:51:29 41° SE
SL-16 R/B 4.4 19:48:06 10° N 19:51:11 15° NNE 19:54:15 10° ENE
SPOT 1/Viking Rocket 3.7 19:50:06 40° SE 19:51:46 59° ENE 19:56:55 10° N
STARLINK-1200 3.7 19:47:48 10° WNW 19:51:54 62° SSW 19:52:31 54° S
Cosmos 540 Rocket 4.0 19:48:21 10° NNW 19:53:20 45° ENE 19:54:31 38° E
Cosmos 2208 Rocket 4.3 19:49:07 10° NNW 19:54:13 51° ENE 19:55:31 41° ESE
Cosmos 1455 3.1 19:56:33 34° NE 19:56:33 34° NE 19:59:14 10° NNE
STARLINK-1192 3.7 19:52:47 10° WNW 19:56:52 58° SSW 19:57:18 54° S
Nadezhda 3 Rocket 4.4 19:56:45 37° ESE 19:58:06 41° E 20:03:54 10° NNE
Iridium 4 Rocket 2.8 19:53:55 10° N 19:58:07 89° W 19:59:06 52° S
Cosmos 2322 Rocket 4.4 19:55:16 10° N 19:58:09 14° NNE 20:01:02 10° ENE
USA 234 3.4 19:52:19 10° ENE 19:58:35 46° SE 20:04:48 10° SSW
Cosmos 1980 Rocket 3.2 19:55:22 10° NNW 20:00:27 33° NE 20:02:02 29° E
Cosmos 1892 2.7 19:57:45 10° NNW 20:01:40 76° W 20:02:12 62° SSW
STARLINK-1244 3.8 19:57:52 10° WNW 20:01:56 54° SW 20:02:10 53° SSW
Cosmos 1814 Rocket 4.3 19:59:31 10° NNW 20:04:48 55° ENE 20:05:54 46° ESE
Cosmos 1825 2.9 20:02:35 10° N 20:05:39 42° NE 20:05:39 42° NE
ATLAS 5 CENTAUR R/B 3.3 20:02:36 10° W 20:06:36 35° NW 20:11:06 10° NNE
STARLINK-1138 4.0 20:02:47 10° WNW 20:06:48 50° SW 20:06:52 50° SSW
Cosmos-2242 3.2 20:08:41 54° ENE 20:08:41 54° ENE 20:12:35 10° NNE
COSMOS 2455 4.4 20:05:02 10° NW 20:10:06 29° WSW 20:13:57 15° SSW
STARLINK-1143 4.1 20:07:46 10° WNW 20:11:39 46° SW 20:11:39 46° SW
Meteor 2-3 Rocket 4.4 20:06:59 10° N 20:12:21 38° ENE 20:13:03 37° E
Cosmos 1356 Rocket 3.4 20:13:46 70° ENE 20:13:46 70° ENE 20:17:46 10° NNE
Cosmos 489 Rocket 4.4 20:08:15 10° NNW 20:14:30 87° ENE 20:16:28 47° SSE
ERBS 3.7 20:11:56 10° WNW 20:14:20 32° WSW 20:14:20 32° WSW
STARLINK-1241 4.3 20:12:48 10° WNW 20:16:28 42° SW 20:16:28 42° SW
STARLINK-29 4.4 20:17:15 10° W 20:19:44 38° NW 20:19:44 38° NW
IGS 5A 3.5 20:20:27 66° SW 20:20:44 69° WSW 20:24:53 10° NNW
ATLAS CENTAUR R/B 1.8 20:18:52 10° NNW 20:22:10 50° N 20:22:10 50° N
Spot 2 Rocket 4.1 20:22:15 35° SSW 20:24:07 52° W 20:29:06 10° NNW
Cosmos 1821 Rocket 4.0 20:18:41 10° N 20:25:05 73° E 20:26:40 52° SE
USA 32 4.0 20:20:06 10° N 20:25:22 86° W 20:26:23 59° S
Cosmos 1934 Rocket 4.3 20:20:07 10° N 20:26:09 47° ENE 20:26:56 45° E
Cosmos 1850 Rocket 4.2 20:24:21 18° SW 20:28:13 69° WNW 20:33:25 10° NNE
Cosmos 2360 4.3 20:22:46 10° NNW 20:28:27 63° ENE 20:29:15 56° E
Cosmos 841 Rocket 3.4 20:23:35 10° NNW 20:28:54 89° WSW 20:29:32 70° SSE
Terra 1.9 20:29:53 60° ENE 20:29:53 60° ENE 20:34:30 10° N
Mayak 1.0 20:27:29 10° NE 20:28:23 15° NE 20:28:23 15° NE
SPOT 5 2.6 20:31:40 76° NNE 20:31:40 76° NNE 20:35:44 10° NNW
Cosmos 2278 3.7 20:26:09 10° NNW 20:31:48 63° ENE 20:32:29 58° E
Cosmos 2082 Rocket 3.3 20:34:09 30° ENE 20:34:09 30° ENE 20:37:30 10° NE
Meteor 2-10 Rocket 3.5 20:33:52 62° SSW 20:34:49 88° WNW 20:40:19 10° NNE
Cosmos 1833 Rocket 2.6 20:39:02 66° E 20:39:02 66° E 20:44:23 10° NNE
CARTOSAT-1 3.7 20:39:31 72° NW 20:39:31 72° NW 20:43:32 10° NNW
Cosmos 1605 Rocket 4.4 20:38:33 10° N 20:44:25 43° ENE 20:44:41 43° E
ERS-1 Rocket 3.2 20:47:01 59° SW 20:47:26 62° WSW 20:52:26 10° NNW
Cosmos 1408 4.1 20:44:08 10° NNW 20:46:55 34° WNW 20:46:55 34° WNW
SL-4 R/B 3.5 20:44:44 10° WNW 20:46:33 28° WNW 20:46:33 28° WNW
RESURS DK-1 3.5 20:47:01 10° NW 20:50:15 38° W 20:50:15 38° W
Cosmos 1766 Rocket 4.1 20:48:48 10° NNW 20:52:50 57° WNW 20:52:50 57° WNW
Okean 3 Rocket 4.3 20:50:27 10° NNW 20:54:34 48° W 20:54:34 48° W
BREEZE M DEB (TANK) 4.3 20:50:15 10° W 20:53:25 31° W 20:53:25 31° W
Resurs 01 Rocket 4.3 20:56:16 10° WSW 20:57:56 12° W 20:59:35 10° WNW
COSMOS 2406 3.7 20:54:52 20° SW 20:58:46 59° WNW 21:04:27 10° NNE
CZ-4C R/B 2.8 20:53:00 10° NW 21:00:07 85° NE 21:01:49 60° SE
Meteor 1-27 4.5 21:05:11 58° ENE 21:05:11 58° ENE 21:10:16 10° NNE
Cosmos 1697 Rocket 3.2 21:09:01 10° NW 21:14:26 47° WSW 21:14:29 47° WSW
Cosmos 2369 4.2 21:09:09 10° NW 21:14:34 48° WSW 21:14:34 48° WSW
SL-16 R/B 2.7 21:31:07 10° NNW 21:36:11 51° NE 21:36:11 51° NE
Cosmos 2360 Rocket 3.6 21:32:19 10° NNW 21:37:10 28° NE 21:37:32 28° NE
Thor Agena Rocket 4.3 21:32:46 10° NNE 21:36:20 46° NNE 21:36:20 46° NNE
USA 234 3.4 21:35:19 10° NE 21:41:50 72° NNW 21:48:21 10° WSW
Cosmos 2322 Rocket 2.8 21:38:09 10° NNW 21:43:04 48° NE 21:43:04 48° NE
Cosmos 2221 4.2 21:46:37 32° N 21:46:37 32° N 21:49:02 10° N
Cosmos 1980 Rocket 2.9 21:39:16 10° NW 21:43:48 45° W 21:43:48 45° W
Cosmos 1459 Rocket 4.5 21:46:01 10° N 21:51:40 51° NE 21:51:40 51° NE
Cosmos 2333 Rocket 4.2 21:54:46 10° N 21:58:53 20° NE 22:00:26 18° ENE
Cosmos 1727 Rocket 4.1 22:05:51 71° NNE 22:05:51 71° NNE 22:11:27 10° N
Mayak 0.9 22:02:47 10° N 22:04:58 25° NNW 22:04:58 25° NNW
Terra 4.0 22:08:45 18° WNW 22:08:45 18° WNW 22:11:18 10° NW
Cosmos 2082 Rocket 3.2 22:15:56 40° WNW 22:16:21 41° NW 22:21:43 10° NNE
Cosmos 1802 Rocket 4.3 22:12:57 10° N 22:18:13 59° NNE 22:18:13 59° NNE
Cosmos 2100 Rocket 4.2 22:15:18 10° N 22:20:40 68° N 22:20:40 68° N
Cosmos 1833 Rocket 4.5 22:20:38 20° W 22:23:12 27° NW 22:27:58 10° NNE
Cosmos 2173 Rocket 4.2 22:21:10 10° N 22:26:16 64° N 22:26:16 64° N
Cosmos 2219 Rocket 3.7 22:29:27 10° NNW 22:34:17 28° NE 22:34:42 28° NE
CZ-4C R/B 4.2 22:42:10 10° WNW 22:46:59 27° W 22:46:59 27° W
Cosmos 2322 4.5 22:54:40 10° NNW 22:59:15 50° NNE 22:59:15 50° NNE
COSMOS 2428 3.7 22:58:29 10° NNW 23:03:37 40° NE 23:03:37 40° NE
Cosmos 839 Rocket 4.3 23:14:56 69° NNE 23:14:56 69° NNE 23:21:03 10° NE
SL-16 R/B 4.0 23:15:41 10° NW 23:18:02 21° WNW 23:18:02 21° WNW
Cosmos 2360 Rocket 3.4 23:16:01 10° NNW 23:19:17 35° NW 23:19:17 35° NW
CZ-2D R/B 4.3 23:18:40 10° NE 23:21:40 17° E 23:21:40 17° E
USA 234 4.2 23:18:15 10° ENE 23:24:23 45° N 23:30:31 10° WNW
Cosmos 2322 Rocket 4.0 23:22:36 10° NW 23:24:52 21° WNW 23:24:52 21° WNW
Cosmos 2333 Rocket 2.9 23:38:21 10° NNW 23:42:25 49° NNW 23:42:25 49° NNW
Cosmos 2237 Rocket 3.5 23:39:52 10° NNW 23:45:05 36° NE 23:46:25 32° ENE
Cosmos 2233 Rocket 4.5 23:42:49 10° NNW 23:47:50 53° NW 23:47:50 53° NW
SL-16 R/B 3.2 23:48:42 44° E 23:49:35 47° ENE 23:55:31 10° N
Lacrosse 5 rocket 4.1 23:54:19 14° NE 23:54:19 14° NE 23:54:55 10° NE
